Year,Month,Day,Hour,Minute,Value (Times are PST for temperature in C)
2016,11,17,00,00,4.20
2016,11,17,00,01,4.20
2016,11,17,00,02,4.30
2016,11,17,00,03,4.30
2016,11,17,00,04,4.30
2016,11,17,00,05,4.30
2016,11,17,00,06,4.30
2016,11,17,00,07,4.30
2016,11,17,00,08,4.30
2016,11,17,00,09,4.30
2016,11,17,00,10,4.30
2016,11,17,00,11,4.30
2016,11,17,00,12,4.30
2016,11,17,00,13,4.30
2016,11,17,00,14,4.30
2016,11,17,00,15,4.30
2016,11,17,00,16,4.30
2016,11,17,00,17,4.20
2016,11,17,00,18,4.20
2016,11,17,00,19,4.20
2016,11,17,00,20,4.20
2016,11,17,00,21,4.20
2016,11,17,00,22,4.10
2016,11,17,00,23,4.10
2016,11,17,00,24,4.10
2016,11,17,00,25,4.10
2016,11,17,00,26,4.00
2016,11,17,00,27,4.00
2016,11,17,00,28,4.00
2016,11,17,00,29,4.00
2016,11,17,00,30,3.90
2016,11,17,00,31,3.90
2016,11,17,00,32,3.90
2016,11,17,00,33,3.90
2016,11,17,00,34,3.80
2016,11,17,00,35,3.80
2016,11,17,00,36,3.80
2016,11,17,00,37,3.80
2016,11,17,00,38,3.80
2016,11,17,00,39,3.70
2016,11,17,00,40,3.70
2016,11,17,00,41,3.70
2016,11,17,00,42,3.70
2016,11,17,00,43,3.70
2016,11,17,00,44,3.70
2016,11,17,00,45,3.70
2016,11,17,00,46,3.70
2016,11,17,00,47,3.70
2016,11,17,00,48,3.70
2016,11,17,00,49,3.70
2016,11,17,00,50,3.70
2016,11,17,00,51,3.70
2016,11,17,00,52,3.70
2016,11,17,00,53,3.70
2016,11,17,00,54,3.60
2016,11,17,00,55,3.60
2016,11,17,00,56,3.60
2016,11,17,00,57,3.60
2016,11,17,00,58,3.50
2016,11,17,00,59,3.50
2016,11,17,01,00,3.40
2016,11,17,01,01,3.40
2016,11,17,01,02,3.40
2016,11,17,01,03,3.40
2016,11,17,01,04,3.30
2016,11,17,01,05,3.30
2016,11,17,01,06,3.30
2016,11,17,01,07,3.30
2016,11,17,01,08,3.30
2016,11,17,01,09,3.30
2016,11,17,01,10,3.30
2016,11,17,01,11,3.30
2016,11,17,01,12,3.30
2016,11,17,01,13,3.30
2016,11,17,01,14,3.20
2016,11,17,01,15,3.20
2016,11,17,01,16,3.20
2016,11,17,01,17,3.20
2016,11,17,01,18,3.20
2016,11,17,01,19,3.20
2016,11,17,01,20,3.20
2016,11,17,01,21,3.20
2016,11,17,01,22,3.20
2016,11,17,01,23,3.20
2016,11,17,01,24,3.10
2016,11,17,01,25,3.10
2016,11,17,01,26,3.10
2016,11,17,01,27,3.10
2016,11,17,01,28,3.00
2016,11,17,01,29,3.00
2016,11,17,01,30,2.90
2016,11,17,01,31,2.90
2016,11,17,01,32,2.90
2016,11,17,01,33,2.80
2016,11,17,01,34,2.80
2016,11,17,01,35,2.80
2016,11,17,01,36,2.80
2016,11,17,01,37,2.80
2016,11,17,01,38,2.80
2016,11,17,01,39,2.80
2016,11,17,01,40,2.80
2016,11,17,01,41,2.80
2016,11,17,01,42,2.80
2016,11,17,01,43,2.80
2016,11,17,01,44,2.90
2016,11,17,01,45,2.90
2016,11,17,01,46,2.90
2016,11,17,01,47,2.90
2016,11,17,01,48,2.90
2016,11,17,01,49,2.90
2016,11,17,01,50,2.90
2016,11,17,01,51,2.90
2016,11,17,01,52,2.90
2016,11,17,01,53,2.90
2016,11,17,01,54,3.00
2016,11,17,01,55,3.00
2016,11,17,01,56,3.00
2016,11,17,01,57,3.00
2016,11,17,01,58,3.00
2016,11,17,01,59,3.00
2016,11,17,02,00,3.00
2016,11,17,02,01,3.00
2016,11,17,02,02,3.00
2016,11,17,02,03,3.00
2016,11,17,02,04,3.00
2016,11,17,02,05,3.00
2016,11,17,02,06,3.00
2016,11,17,02,07,3.00
2016,11,17,02,08,3.00
2016,11,17,02,09,3.00
2016,11,17,02,10,3.00
2016,11,17,02,11,3.00
2016,11,17,02,12,3.00
2016,11,17,02,13,2.90
2016,11,17,02,14,2.90
2016,11,17,02,15,3.00
2016,11,17,02,16,3.00
2016,11,17,02,17,3.00
2016,11,17,02,18,3.00
2016,11,17,02,19,3.00
2016,11,17,02,20,3.00
2016,11,17,02,21,3.00
2016,11,17,02,22,3.00
2016,11,17,02,23,3.00
2016,11,17,02,24,3.00
2016,11,17,02,25,3.00
2016,11,17,02,26,3.00
2016,11,17,02,27,3.00
2016,11,17,02,28,2.90
2016,11,17,02,29,2.90
2016,11,17,02,30,2.90
2016,11,17,02,31,2.90
2016,11,17,02,32,2.90
2016,11,17,02,33,2.90
2016,11,17,02,34,2.90
2016,11,17,02,35,2.90
2016,11,17,02,36,2.90
2016,11,17,02,37,2.80
2016,11,17,02,38,2.80
2016,11,17,02,39,2.80
2016,11,17,02,40,2.80
2016,11,17,02,41,2.80
2016,11,17,02,42,2.80
2016,11,17,02,43,2.80
2016,11,17,02,44,2.80
2016,11,17,02,45,2.80
2016,11,17,02,46,2.80
2016,11,17,02,47,2.80
2016,11,17,02,48,2.80
2016,11,17,02,49,2.80
2016,11,17,02,50,2.70
2016,11,17,02,51,2.70
2016,11,17,02,52,2.70
2016,11,17,02,53,2.70
2016,11,17,02,54,2.70
2016,11,17,02,55,2.70
2016,11,17,02,56,2.70
2016,11,17,02,57,2.70
2016,11,17,02,58,2.70
2016,11,17,02,59,2.60
2016,11,17,03,00,2.60
2016,11,17,03,01,2.60
2016,11,17,03,02,2.60
2016,11,17,03,03,2.60
2016,11,17,03,04,2.60
2016,11,17,03,05,2.50
2016,11,17,03,06,2.50
2016,11,17,03,07,2.50
2016,11,17,03,08,2.50
2016,11,17,03,09,2.50
2016,11,17,03,10,2.50
2016,11,17,03,11,2.40
2016,11,17,03,12,2.40
2016,11,17,03,13,2.40
2016,11,17,03,14,2.40
2016,11,17,03,15,2.40
2016,11,17,03,16,2.40
2016,11,17,03,17,2.30
2016,11,17,03,18,2.30
2016,11,17,03,19,2.30
2016,11,17,03,20,2.30
2016,11,17,03,21,2.30
2016,11,17,03,22,2.30
2016,11,17,03,23,2.30
2016,11,17,03,24,2.30
2016,11,17,03,25,2.30
2016,11,17,03,26,2.30
2016,11,17,03,27,2.20
2016,11,17,03,28,2.20
2016,11,17,03,29,2.20
2016,11,17,03,30,2.20
2016,11,17,03,31,2.20
2016,11,17,03,32,2.20
2016,11,17,03,33,2.20
2016,11,17,03,34,2.20
2016,11,17,03,35,2.20
2016,11,17,03,36,2.20
2016,11,17,03,37,2.20
2016,11,17,03,38,2.20
2016,11,17,03,39,2.20
2016,11,17,03,40,2.20
2016,11,17,03,41,2.10
2016,11,17,03,42,2.10
2016,11,17,03,43,2.10
2016,11,17,03,44,2.10
2016,11,17,03,45,2.10
2016,11,17,03,46,2.10
2016,11,17,03,47,2.00
2016,11,17,03,48,2.00
2016,11,17,03,49,2.00
2016,11,17,03,50,2.00
2016,11,17,03,51,2.00
2016,11,17,03,52,1.90
2016,11,17,03,53,1.90
2016,11,17,03,54,1.90
2016,11,17,03,55,1.90
2016,11,17,03,56,1.90
2016,11,17,03,57,1.90
2016,11,17,03,58,1.90
2016,11,17,03,59,1.90
2016,11,17,04,00,1.90
2016,11,17,04,01,1.90
2016,11,17,04,02,1.90
2016,11,17,04,03,1.90
2016,11,17,04,04,1.90
2016,11,17,04,05,1.90
2016,11,17,04,06,1.90
2016,11,17,04,07,1.90
2016,11,17,04,08,1.90
2016,11,17,04,09,1.90
2016,11,17,04,10,1.90
2016,11,17,04,11,1.90
2016,11,17,04,12,1.80
2016,11,17,04,13,1.80
2016,11,17,04,14,1.80
2016,11,17,04,15,1.80
2016,11,17,04,16,1.80
2016,11,17,04,17,1.80
2016,11,17,04,18,1.80
2016,11,17,04,19,1.80
2016,11,17,04,20,1.80
2016,11,17,04,21,1.80
2016,11,17,04,22,1.80
2016,11,17,04,23,1.80
2016,11,17,04,24,1.80
2016,11,17,04,25,1.90
2016,11,17,04,26,1.90
2016,11,17,04,27,1.90
2016,11,17,04,28,1.90
2016,11,17,04,29,1.90
2016,11,17,04,30,1.90
2016,11,17,04,31,1.90
2016,11,17,04,32,1.90
2016,11,17,04,33,1.90
2016,11,17,04,34,1.90
2016,11,17,04,35,2.00
2016,11,17,04,36,2.00
2016,11,17,04,37,2.00
2016,11,17,04,38,2.00
2016,11,17,04,39,2.10
2016,11,17,04,40,2.10
2016,11,17,04,41,2.10
2016,11,17,04,42,2.10
2016,11,17,04,43,2.10
2016,11,17,04,44,2.10
2016,11,17,04,45,2.10
2016,11,17,04,46,2.20
2016,11,17,04,47,2.20
2016,11,17,04,48,2.20
2016,11,17,04,49,2.20
2016,11,17,04,50,2.20
2016,11,17,04,51,2.20
2016,11,17,04,52,2.20
2016,11,17,04,53,2.20
2016,11,17,04,54,2.20
2016,11,17,04,55,2.20
2016,11,17,04,56,2.20
2016,11,17,04,57,2.20
2016,11,17,04,58,2.20
2016,11,17,04,59,2.20
2016,11,17,05,00,2.20
2016,11,17,05,01,2.20
2016,11,17,05,02,2.20
2016,11,17,05,03,2.20
2016,11,17,05,04,2.20
2016,11,17,05,05,2.20
2016,11,17,05,06,2.20
2016,11,17,05,07,2.20
2016,11,17,05,08,2.30
2016,11,17,05,09,2.30
2016,11,17,05,10,2.30
2016,11,17,05,11,2.30
2016,11,17,05,12,2.30
2016,11,17,05,13,2.30
2016,11,17,05,14,2.30
2016,11,17,05,15,2.30
2016,11,17,05,16,2.30
2016,11,17,05,17,2.30
2016,11,17,05,18,2.40
2016,11,17,05,19,2.40
2016,11,17,05,20,2.40
2016,11,17,05,21,2.40
2016,11,17,05,22,2.40
2016,11,17,05,23,2.40
2016,11,17,05,24,2.40
2016,11,17,05,25,2.40
2016,11,17,05,26,2.40
2016,11,17,05,27,2.40
2016,11,17,05,28,2.40
2016,11,17,05,29,2.40
2016,11,17,05,30,2.50
2016,11,17,05,31,2.40
2016,11,17,05,32,2.50
2016,11,17,05,33,2.50
2016,11,17,05,34,2.50
2016,11,17,05,35,2.50
2016,11,17,05,36,2.50
2016,11,17,05,37,2.50
2016,11,17,05,38,2.50
2016,11,17,05,39,2.50
2016,11,17,05,40,2.60
2016,11,17,05,41,2.60
2016,11,17,05,42,2.60
2016,11,17,05,43,2.60
2016,11,17,05,44,2.60
2016,11,17,05,45,2.60
2016,11,17,05,46,2.60
2016,11,17,05,47,2.60
2016,11,17,05,48,2.60
2016,11,17,05,49,2.60
2016,11,17,05,50,2.70
2016,11,17,05,51,2.70
2016,11,17,05,52,2.70
2016,11,17,05,53,2.70
2016,11,17,05,54,2.70
2016,11,17,05,55,2.70
2016,11,17,05,56,2.70
2016,11,17,05,57,2.80
2016,11,17,05,58,2.80
2016,11,17,05,59,2.80
2016,11,17,06,00,2.80
2016,11,17,06,01,2.80
2016,11,17,06,02,2.80
2016,11,17,06,03,2.80
2016,11,17,06,04,2.80
2016,11,17,06,05,2.80
2016,11,17,06,06,2.80
2016,11,17,06,07,2.80
2016,11,17,06,08,2.80
2016,11,17,06,09,2.80
2016,11,17,06,10,2.80
2016,11,17,06,11,2.80
2016,11,17,06,12,2.90
2016,11,17,06,13,2.90
2016,11,17,06,14,2.90
2016,11,17,06,15,2.90
2016,11,17,06,16,2.90
2016,11,17,06,17,2.90
2016,11,17,06,18,2.90
2016,11,17,06,19,2.90
2016,11,17,06,20,2.90
2016,11,17,06,21,2.90
2016,11,17,06,22,2.90
2016,11,17,06,23,2.90
2016,11,17,06,24,3.00
2016,11,17,06,25,3.00
2016,11,17,06,26,3.00
2016,11,17,06,27,3.10
2016,11,17,06,28,3.10
2016,11,17,06,29,3.10
2016,11,17,06,30,3.10
2016,11,17,06,31,3.10
2016,11,17,06,32,3.10
2016,11,17,06,33,3.10
2016,11,17,06,34,3.20
2016,11,17,06,35,3.20
2016,11,17,06,36,3.20
2016,11,17,06,37,3.20
2016,11,17,06,38,3.20
2016,11,17,06,39,3.20
2016,11,17,06,40,3.20
2016,11,17,06,41,3.20
2016,11,17,06,42,3.20
2016,11,17,06,43,3.20
2016,11,17,06,44,3.20
2016,11,17,06,45,3.30
2016,11,17,06,46,3.30
2016,11,17,06,47,3.30
2016,11,17,06,48,3.30
2016,11,17,06,49,3.30
2016,11,17,06,50,3.30
2016,11,17,06,51,3.30
2016,11,17,06,52,3.30
2016,11,17,06,53,3.30
2016,11,17,06,54,3.30
2016,11,17,06,55,3.30
2016,11,17,06,56,3.30
2016,11,17,06,57,3.30
2016,11,17,06,58,3.30
2016,11,17,06,59,3.30
2016,11,17,07,00,3.30
2016,11,17,07,01,3.30
2016,11,17,07,02,3.40
2016,11,17,07,03,3.40
2016,11,17,07,04,3.40
2016,11,17,07,05,3.40
2016,11,17,07,06,3.40
2016,11,17,07,07,3.40
2016,11,17,07,08,3.40
2016,11,17,07,09,3.40
2016,11,17,07,10,3.40
2016,11,17,07,11,3.50
2016,11,17,07,12,3.50
2016,11,17,07,13,3.50
2016,11,17,07,14,3.50
2016,11,17,07,15,3.60
2016,11,17,07,16,3.60
2016,11,17,07,17,3.60
2016,11,17,07,18,3.60
2016,11,17,07,19,3.60
2016,11,17,07,20,3.70
2016,11,17,07,21,3.70
2016,11,17,07,22,3.70
2016,11,17,07,23,3.70
2016,11,17,07,24,3.70
2016,11,17,07,25,3.70
2016,11,17,07,26,3.70
2016,11,17,07,27,3.70
2016,11,17,07,28,3.70
2016,11,17,07,29,3.70
2016,11,17,07,30,3.70
2016,11,17,07,31,3.60
2016,11,17,07,32,3.60
2016,11,17,07,33,3.60
2016,11,17,07,34,3.60
2016,11,17,07,35,3.60
2016,11,17,07,36,3.60
2016,11,17,07,37,3.60
2016,11,17,07,38,3.60
2016,11,17,07,39,3.60
2016,11,17,07,40,3.60
2016,11,17,07,41,3.60
2016,11,17,07,42,3.60
2016,11,17,07,43,3.60
2016,11,17,07,44,3.60
2016,11,17,07,45,3.60
2016,11,17,07,46,3.60
2016,11,17,07,47,3.60
2016,11,17,07,48,3.60
2016,11,17,07,49,3.70
2016,11,17,07,50,3.70
2016,11,17,07,51,3.70
2016,11,17,07,52,3.70
2016,11,17,07,53,3.70
2016,11,17,07,54,3.70
2016,11,17,07,55,3.70
2016,11,17,07,56,3.80
2016,11,17,07,57,3.80
2016,11,17,07,58,3.90
2016,11,17,07,59,3.90
2016,11,17,08,00,4.00
2016,11,17,08,01,4.00
2016,11,17,08,02,4.00
2016,11,17,08,03,4.10
2016,11,17,08,04,4.10
2016,11,17,08,05,4.10
2016,11,17,08,06,4.20
2016,11,17,08,07,4.20
2016,11,17,08,08,4.20
2016,11,17,08,09,4.30
2016,11,17,08,10,4.30
2016,11,17,08,11,4.30
2016,11,17,08,12,4.40
2016,11,17,08,13,4.40
2016,11,17,08,14,4.40
2016,11,17,08,15,4.50
2016,11,17,08,16,4.50
2016,11,17,08,17,4.50
2016,11,17,08,18,4.50
2016,11,17,08,19,4.50
2016,11,17,08,20,4.50
2016,11,17,08,21,4.50
2016,11,17,08,22,4.60
2016,11,17,08,23,4.60
2016,11,17,08,24,4.60
2016,11,17,08,25,4.60
2016,11,17,08,26,4.60
2016,11,17,08,27,4.60
2016,11,17,08,28,4.60
2016,11,17,08,29,4.70
2016,11,17,08,30,4.70
2016,11,17,08,31,4.70
2016,11,17,08,32,4.70
2016,11,17,08,33,4.70
2016,11,17,08,34,4.70
2016,11,17,08,35,4.70
2016,11,17,08,36,4.70
2016,11,17,08,37,4.70
2016,11,17,08,38,4.70
2016,11,17,08,39,4.70
2016,11,17,08,40,4.70
2016,11,17,08,41,4.80
2016,11,17,08,42,4.80
2016,11,17,08,43,4.80
2016,11,17,08,44,4.80
2016,11,17,08,45,4.80
2016,11,17,08,46,4.80
2016,11,17,08,47,4.80
2016,11,17,08,48,4.80
2016,11,17,08,49,4.80
2016,11,17,08,50,4.80
2016,11,17,08,51,4.80
2016,11,17,08,52,4.80
2016,11,17,08,53,4.80
2016,11,17,08,54,4.90
2016,11,17,08,55,4.90
2016,11,17,08,56,4.90
2016,11,17,08,57,4.90
2016,11,17,08,58,4.90
2016,11,17,08,59,4.90
2016,11,17,09,00,4.90
2016,11,17,09,01,5.00
2016,11,17,09,02,5.00
2016,11,17,09,03,5.10
2016,11,17,09,04,5.10
2016,11,17,09,05,5.10
2016,11,17,09,06,5.20
2016,11,17,09,07,5.20
2016,11,17,09,08,5.30
2016,11,17,09,09,5.30
2016,11,17,09,10,5.40
2016,11,17,09,11,5.40
2016,11,17,09,12,5.50
2016,11,17,09,13,5.50
2016,11,17,09,14,5.60
2016,11,17,09,15,5.70
2016,11,17,09,16,5.70
2016,11,17,09,17,5.80
2016,11,17,09,18,5.80
2016,11,17,09,19,5.90
2016,11,17,09,20,5.90
2016,11,17,09,21,5.90
2016,11,17,09,22,6.00
2016,11,17,09,23,6.10
2016,11,17,09,24,6.10
2016,11,17,09,25,6.10
2016,11,17,09,26,6.20
2016,11,17,09,27,6.20
2016,11,17,09,28,6.30
2016,11,17,09,29,6.30
2016,11,17,09,30,6.30
2016,11,17,09,31,6.40
2016,11,17,09,32,6.40
2016,11,17,09,33,6.50
2016,11,17,09,34,6.50
2016,11,17,09,35,6.60
2016,11,17,09,36,6.60
2016,11,17,09,37,6.70
2016,11,17,09,38,6.70
2016,11,17,09,39,6.70
2016,11,17,09,40,6.80
2016,11,17,09,41,6.80
2016,11,17,09,42,6.80
2016,11,17,09,43,6.90
2016,11,17,09,44,6.90
2016,11,17,09,45,7.00
2016,11,17,09,46,7.10
2016,11,17,09,47,7.10
2016,11,17,09,48,7.10
2016,11,17,09,49,7.10
2016,11,17,09,50,7.10
2016,11,17,09,51,7.20
2016,11,17,09,52,7.20
2016,11,17,09,53,7.20
2016,11,17,09,54,7.20
2016,11,17,09,55,7.20
2016,11,17,09,56,7.20
2016,11,17,09,57,7.20
2016,11,17,09,58,7.20
2016,11,17,09,59,7.20
2016,11,17,10,00,7.20
2016,11,17,10,01,7.30
2016,11,17,10,02,7.30
2016,11,17,10,03,7.30
2016,11,17,10,04,7.30
2016,11,17,10,05,7.30
2016,11,17,10,06,7.30
2016,11,17,10,07,7.30
2016,11,17,10,08,7.40
2016,11,17,10,09,7.40
2016,11,17,10,10,7.40
2016,11,17,10,11,7.40
2016,11,17,10,12,7.40
2016,11,17,10,13,7.50
2016,11,17,10,14,7.50
2016,11,17,10,15,7.50
2016,11,17,10,16,7.50
2016,11,17,10,17,7.50
2016,11,17,10,18,7.50
2016,11,17,10,19,7.60
2016,11,17,10,20,7.60
2016,11,17,10,21,7.60
2016,11,17,10,22,7.60
2016,11,17,10,23,7.60
2016,11,17,10,24,7.50
2016,11,17,10,25,7.50
2016,11,17,10,26,7.40
2016,11,17,10,27,7.40
2016,11,17,10,28,7.50
2016,11,17,10,29,7.50
2016,11,17,10,30,7.50
2016,11,17,10,31,7.50
2016,11,17,10,32,7.50
2016,11,17,10,33,7.50
2016,11,17,10,34,7.50
2016,11,17,10,35,7.50
2016,11,17,10,36,7.50
2016,11,17,10,37,7.50
2016,11,17,10,38,7.60
2016,11,17,10,39,7.60
2016,11,17,10,40,7.60
2016,11,17,10,41,7.70
2016,11,17,10,42,7.70
2016,11,17,10,43,7.70
2016,11,17,10,44,7.70
2016,11,17,10,45,7.80
2016,11,17,10,46,7.80
2016,11,17,10,47,7.80
2016,11,17,10,48,7.80
2016,11,17,10,49,7.80
2016,11,17,10,50,7.80
2016,11,17,10,51,7.80
2016,11,17,10,52,7.80
2016,11,17,10,53,7.90
2016,11,17,10,54,7.90
2016,11,17,10,55,7.90
2016,11,17,10,56,7.90
2016,11,17,10,57,7.90
2016,11,17,10,58,7.90
2016,11,17,10,59,7.90
2016,11,17,11,00,8.00
2016,11,17,11,01,8.00
2016,11,17,11,02,8.00
2016,11,17,11,03,8.00
2016,11,17,11,04,8.00
2016,11,17,11,05,8.00
2016,11,17,11,06,8.00
2016,11,17,11,07,8.10
2016,11,17,11,08,8.10
2016,11,17,11,09,8.10
2016,11,17,11,10,8.10
2016,11,17,11,11,8.10
2016,11,17,11,12,8.10
2016,11,17,11,13,8.10
2016,11,17,11,14,8.10
2016,11,17,11,15,8.10
2016,11,17,11,16,8.10
2016,11,17,11,17,8.10
2016,11,17,11,18,8.10
2016,11,17,11,19,8.10
2016,11,17,11,20,8.10
2016,11,17,11,21,8.10
2016,11,17,11,22,8.10
2016,11,17,11,23,8.10
2016,11,17,11,24,8.10
2016,11,17,11,25,8.10
2016,11,17,11,26,8.10
2016,11,17,11,27,8.10
2016,11,17,11,28,8.20
2016,11,17,11,29,8.20
2016,11,17,11,30,8.20
2016,11,17,11,31,8.30
2016,11,17,11,32,8.30
2016,11,17,11,33,8.30
2016,11,17,11,34,8.30
2016,11,17,11,35,8.30
2016,11,17,11,36,8.40
2016,11,17,11,37,8.40
2016,11,17,11,38,8.40
2016,11,17,11,39,8.40
2016,11,17,11,40,8.40
2016,11,17,11,41,8.30
2016,11,17,11,42,8.30
2016,11,17,11,43,8.30
2016,11,17,11,44,8.30
2016,11,17,11,45,8.30
2016,11,17,11,46,8.40
2016,11,17,11,47,8.40
2016,11,17,11,48,8.40
2016,11,17,11,49,8.40
2016,11,17,11,50,8.40
2016,11,17,11,51,8.40
2016,11,17,11,52,8.40
2016,11,17,11,53,8.40
2016,11,17,11,54,8.40
2016,11,17,11,55,8.40
2016,11,17,11,56,8.30
2016,11,17,11,57,8.40
2016,11,17,11,58,8.40
2016,11,17,11,59,8.40
2016,11,17,12,00,8.50
2016,11,17,12,01,8.50
2016,11,17,12,02,8.50
2016,11,17,12,03,8.60
2016,11,17,12,04,8.60
2016,11,17,12,05,8.60
2016,11,17,12,06,8.60
2016,11,17,12,07,8.60
2016,11,17,12,08,8.50
2016,11,17,12,09,8.50
2016,11,17,12,10,8.60
2016,11,17,12,11,8.60
2016,11,17,12,12,8.60
2016,11,17,12,13,8.60
2016,11,17,12,14,8.60
2016,11,17,12,15,8.60
2016,11,17,12,16,8.60
2016,11,17,12,17,8.60
2016,11,17,12,18,8.70
2016,11,17,12,19,8.70
2016,11,17,12,20,8.70
2016,11,17,12,21,8.80
2016,11,17,12,22,8.80
2016,11,17,12,23,8.80
2016,11,17,12,24,8.80
2016,11,17,12,25,8.80
2016,11,17,12,26,8.90
2016,11,17,12,27,8.90
2016,11,17,12,28,8.90
2016,11,17,12,29,8.90
2016,11,17,12,30,8.90
2016,11,17,12,31,9.00
2016,11,17,12,32,9.00
2016,11,17,12,33,9.00
2016,11,17,12,34,9.00
2016,11,17,12,35,9.00
2016,11,17,12,36,9.00
2016,11,17,12,37,9.10
2016,11,17,12,38,9.10
2016,11,17,12,39,9.10
2016,11,17,12,40,9.10
2016,11,17,12,41,9.10
2016,11,17,12,42,9.00
2016,11,17,12,43,9.00
2016,11,17,12,44,8.90
2016,11,17,12,45,8.90
2016,11,17,12,46,8.90
2016,11,17,12,47,8.90
2016,11,17,12,48,8.90
2016,11,17,12,49,8.90
2016,11,17,12,50,8.90
2016,11,17,12,51,8.90
2016,11,17,12,52,8.90
2016,11,17,12,53,8.90
2016,11,17,12,54,9.00
2016,11,17,12,55,9.00
2016,11,17,12,56,9.00
2016,11,17,12,57,9.00
2016,11,17,12,58,9.10
2016,11,17,12,59,9.00
2016,11,17,13,00,9.00
2016,11,17,13,01,9.00
2016,11,17,13,02,9.00
2016,11,17,13,03,8.90
2016,11,17,13,04,8.90
2016,11,17,13,05,8.90
2016,11,17,13,06,8.90
2016,11,17,13,07,8.90
2016,11,17,13,08,8.90
2016,11,17,13,09,8.90
2016,11,17,13,10,8.90
2016,11,17,13,11,8.90
2016,11,17,13,12,8.90
2016,11,17,13,13,8.90
2016,11,17,13,14,8.90
2016,11,17,13,15,8.90
2016,11,17,13,16,8.90
2016,11,17,13,17,8.90
2016,11,17,13,18,8.90
2016,11,17,13,19,8.90
2016,11,17,13,20,8.90
2016,11,17,13,21,8.90
2016,11,17,13,22,8.90
2016,11,17,13,23,8.90
2016,11,17,13,24,8.90
2016,11,17,13,25,9.00
2016,11,17,13,26,9.00
2016,11,17,13,27,9.00
2016,11,17,13,28,9.00
2016,11,17,13,29,9.00
2016,11,17,13,30,9.00
2016,11,17,13,31,9.00
2016,11,17,13,32,9.00
2016,11,17,13,33,9.00
2016,11,17,13,34,9.00
2016,11,17,13,35,8.90
2016,11,17,13,36,8.90
2016,11,17,13,37,8.90
2016,11,17,13,38,8.90
2016,11,17,13,39,8.90
2016,11,17,13,40,8.90
2016,11,17,13,41,8.90
2016,11,17,13,42,8.90
2016,11,17,13,43,8.90
2016,11,17,13,44,8.90
2016,11,17,13,45,8.90
2016,11,17,13,46,8.90
2016,11,17,13,47,8.90
2016,11,17,13,48,8.90
2016,11,17,13,49,8.90
2016,11,17,13,50,8.90
2016,11,17,13,51,8.90
2016,11,17,13,52,8.90
2016,11,17,13,53,8.90
2016,11,17,13,54,9.00
2016,11,17,13,55,9.00
2016,11,17,13,56,9.00
2016,11,17,13,57,9.10
2016,11,17,13,58,9.10
2016,11,17,13,59,9.10
2016,11,17,14,00,9.10
2016,11,17,14,01,9.10
2016,11,17,14,02,9.10
2016,11,17,14,03,9.10
2016,11,17,14,04,9.10
2016,11,17,14,05,9.10
2016,11,17,14,06,9.10
2016,11,17,14,07,9.10
2016,11,17,14,08,9.10
2016,11,17,14,09,9.10
2016,11,17,14,10,9.10
2016,11,17,14,11,9.10
2016,11,17,14,12,9.10
2016,11,17,14,13,9.10
2016,11,17,14,14,9.10
2016,11,17,14,15,9.10
2016,11,17,14,16,9.10
2016,11,17,14,17,9.10
2016,11,17,14,18,9.10
2016,11,17,14,19,9.10
2016,11,17,14,20,9.10
2016,11,17,14,21,9.10
2016,11,17,14,22,9.10
2016,11,17,14,23,9.10
2016,11,17,14,24,9.10
2016,11,17,14,25,9.10
2016,11,17,14,26,9.10
2016,11,17,14,27,9.10
2016,11,17,14,28,9.10
2016,11,17,14,29,9.20
2016,11,17,14,30,9.20
2016,11,17,14,31,9.20
2016,11,17,14,32,9.20
2016,11,17,14,33,9.20
2016,11,17,14,34,9.20
2016,11,17,14,35,9.20
2016,11,17,14,36,9.20
2016,11,17,14,37,9.20
2016,11,17,14,38,9.20
2016,11,17,14,39,9.20
2016,11,17,14,40,9.20
2016,11,17,14,41,9.20
2016,11,17,14,42,9.20
2016,11,17,14,43,9.20
2016,11,17,14,44,9.10
2016,11,17,14,45,9.10
2016,11,17,14,46,9.10
2016,11,17,14,47,9.10
2016,11,17,14,48,9.10
2016,11,17,14,49,9.10
2016,11,17,14,50,9.10
2016,11,17,14,51,9.10
2016,11,17,14,52,9.10
2016,11,17,14,53,9.10
2016,11,17,14,54,9.10
2016,11,17,14,55,9.10
2016,11,17,14,56,9.10
2016,11,17,14,57,9.10
2016,11,17,14,58,9.10
2016,11,17,14,59,9.10
2016,11,17,15,00,9.10
2016,11,17,15,01,9.20
2016,11,17,15,02,9.20
2016,11,17,15,03,9.20
2016,11,17,15,04,9.20
2016,11,17,15,05,9.20
2016,11,17,15,06,9.20
2016,11,17,15,07,9.10
2016,11,17,15,08,9.10
2016,11,17,15,09,9.10
2016,11,17,15,10,9.10
2016,11,17,15,11,9.10
2016,11,17,15,12,9.10
2016,11,17,15,13,9.00
2016,11,17,15,14,9.00
2016,11,17,15,15,8.90
2016,11,17,15,16,8.90
2016,11,17,15,17,8.90
2016,11,17,15,18,8.90
2016,11,17,15,19,8.80
2016,11,17,15,20,8.80
2016,11,17,15,21,8.80
2016,11,17,15,22,8.80
2016,11,17,15,23,8.80
2016,11,17,15,24,8.70
2016,11,17,15,25,8.70
2016,11,17,15,26,8.70
2016,11,17,15,27,8.70
2016,11,17,15,28,8.70
2016,11,17,15,29,8.70
2016,11,17,15,30,8.60
2016,11,17,15,31,8.60
2016,11,17,15,32,8.60
2016,11,17,15,33,8.60
2016,11,17,15,34,8.60
2016,11,17,15,35,8.60
2016,11,17,15,36,8.60
2016,11,17,15,37,8.50
2016,11,17,15,38,8.50
2016,11,17,15,39,8.50
2016,11,17,15,40,8.50
2016,11,17,15,41,8.40
2016,11,17,15,42,8.40
2016,11,17,15,43,8.40
2016,11,17,15,44,8.40
2016,11,17,15,45,8.40
2016,11,17,15,46,8.40
2016,11,17,15,47,8.30
2016,11,17,15,48,8.30
2016,11,17,15,49,8.30
2016,11,17,15,50,8.30
2016,11,17,15,51,8.30
2016,11,17,15,52,8.30
2016,11,17,15,53,8.20
2016,11,17,15,54,8.20
2016,11,17,15,55,8.20
2016,11,17,15,56,8.20
2016,11,17,15,57,8.20
2016,11,17,15,58,8.20
2016,11,17,15,59,8.10
2016,11,17,16,00,8.10
2016,11,17,16,01,8.10
2016,11,17,16,02,8.10
2016,11,17,16,03,8.10
2016,11,17,16,04,8.10
2016,11,17,16,05,8.00
2016,11,17,16,06,8.00
2016,11,17,16,07,8.00
2016,11,17,16,08,8.00
2016,11,17,16,09,7.90
2016,11,17,16,10,7.90
2016,11,17,16,11,7.90
2016,11,17,16,12,7.90
2016,11,17,16,13,7.90
2016,11,17,16,14,7.90
2016,11,17,16,15,7.90
2016,11,17,16,16,7.80
2016,11,17,16,17,7.80
2016,11,17,16,18,7.80
2016,11,17,16,19,7.80
2016,11,17,16,20,7.80
2016,11,17,16,21,7.80
2016,11,17,16,22,7.80
2016,11,17,16,23,7.70
2016,11,17,16,24,7.70
2016,11,17,16,25,7.70
2016,11,17,16,26,7.70
2016,11,17,16,27,7.70
2016,11,17,16,28,7.60
2016,11,17,16,29,7.60
2016,11,17,16,30,7.60
2016,11,17,16,31,7.60
2016,11,17,16,32,7.60
2016,11,17,16,33,7.60
2016,11,17,16,34,7.50
2016,11,17,16,35,7.50
2016,11,17,16,36,7.50
2016,11,17,16,37,7.40
2016,11,17,16,38,7.40
2016,11,17,16,39,7.40
2016,11,17,16,40,7.40
2016,11,17,16,41,7.30
2016,11,17,16,42,7.30
2016,11,17,16,43,7.30
2016,11,17,16,44,7.30
2016,11,17,16,45,7.20
2016,11,17,16,46,7.20
2016,11,17,16,47,7.10
2016,11,17,16,48,7.10
2016,11,17,16,49,7.10
2016,11,17,16,50,7.00
2016,11,17,16,51,7.00
2016,11,17,16,52,6.90
2016,11,17,16,53,6.90
2016,11,17,16,54,6.80
2016,11,17,16,55,6.80
2016,11,17,16,56,6.80
2016,11,17,16,57,6.70
2016,11,17,16,58,6.70
2016,11,17,16,59,6.70
2016,11,17,17,00,6.70
2016,11,17,17,01,6.60
2016,11,17,17,02,6.60
2016,11,17,17,03,6.50
2016,11,17,17,04,6.50
2016,11,17,17,05,6.50
2016,11,17,17,06,6.50
2016,11,17,17,07,6.50
2016,11,17,17,08,6.50
2016,11,17,17,09,6.40
2016,11,17,17,10,6.40
2016,11,17,17,11,6.40
2016,11,17,17,12,6.40
2016,11,17,17,13,6.40
2016,11,17,17,14,6.40
2016,11,17,17,15,6.40
2016,11,17,17,16,6.40
2016,11,17,17,17,6.30
2016,11,17,17,18,6.30
2016,11,17,17,19,6.30
2016,11,17,17,20,6.30
2016,11,17,17,21,6.30
2016,11,17,17,22,6.30
2016,11,17,17,23,6.20
2016,11,17,17,24,6.20
2016,11,17,17,25,6.20
2016,11,17,17,26,6.20
2016,11,17,17,27,6.20
2016,11,17,17,28,6.20
2016,11,17,17,29,6.20
2016,11,17,17,30,6.20
2016,11,17,17,31,6.20
2016,11,17,17,32,6.20
2016,11,17,17,33,6.20
2016,11,17,17,34,6.30
2016,11,17,17,35,6.30
2016,11,17,17,36,6.30
2016,11,17,17,37,6.30
2016,11,17,17,38,6.40
2016,11,17,17,39,6.40
2016,11,17,17,40,6.40
2016,11,17,17,41,6.40
2016,11,17,17,42,6.50
2016,11,17,17,43,6.50
2016,11,17,17,44,6.50
2016,11,17,17,45,6.60
2016,11,17,17,46,6.60
2016,11,17,17,47,6.60
2016,11,17,17,48,6.60
2016,11,17,17,49,6.60
2016,11,17,17,50,6.60
2016,11,17,17,51,6.60
2016,11,17,17,52,6.60
2016,11,17,17,53,6.60
2016,11,17,17,54,6.60
2016,11,17,17,55,6.60
2016,11,17,17,56,6.60
2016,11,17,17,57,6.60
2016,11,17,17,58,6.60
2016,11,17,17,59,6.60
2016,11,17,18,00,6.60
2016,11,17,18,01,6.60
2016,11,17,18,02,6.60
2016,11,17,18,03,6.60
2016,11,17,18,04,6.50
2016,11,17,18,05,6.50
2016,11,17,18,06,6.50